Location: Gesvres
(49.0440°N, 2.8518°E)
Time: 07:00:32
(UTC+00:00)

Cosmos 2360 Rocket - Pass Details

Date: 28 January 2023
Orbit: 832 x 846 km, 71.0° (Epoch: 24 March)

Event Time Altitude Azimuth Distance (km) Brightness Sun altitude
Rises 19:37:38 0° 195° (SSW) 3,371 5.4 -29.2°
Reaches altitude 10° 19:40:04 10° 192° (SSW) 2,443 4.6 -29.6°
Enters shadow 19:41:18 17° 190° (S) 1,995 4.1 -29.8°
